www.pogodaiklimat.ru
ПОГОДА в Крайове

Архив погоды в Крайове (Румыния)

Время
(UTC), дата
19 10.06
20 10.06
21 10.06
22 10.06
23 10.06
00 11.06
01 11.06
02 11.06
03 11.06
04 11.06
05 11.06
06 11.06
07 11.06
08 11.06
09 11.06
10 11.06
11 11.06
12 11.06
13 11.06
14 11.06
15 11.06
16 11.06
17 11.06
18 11.06
19 11.06
20 11.06
21 11.06
22 11.06
23 11.06
00 12.06
01 12.06
02 12.06
03 12.06
04 12.06
05 12.06
06 12.06
07 12.06
08 12.06
09 12.06
10 12.06
11 12.06
12 12.06
13 12.06
14 12.06
15 12.06
16 12.06
17 12.06
18 12.06
19 12.06
20 12.06
21 12.06
22 12.06
23 12.06
00 13.06
01 13.06
02 13.06
03 13.06
04 13.06
05 13.06
06 13.06
07 13.06
08 13.06
09 13.06
10 13.06
11 13.06
12 13.06
13 13.06
14 13.06
15 13.06
16 13.06
17 13.06
18 13.06
19 13.06
20 13.06
21 13.06
22 13.06
23 13.06
00 14.06
01 14.06
02 14.06
03 14.06
04 14.06
05 14.06
06 14.06
07 14.06
08 14.06
09 14.06
10 14.06
11 14.06
12 14.06
13 14.06
14 14.06
15 14.06
16 14.06
17 14.06
18 14.06
19 14.06
20 14.06
21 14.06
22 14.06
23 14.06
00 15.06
01 15.06
02 15.06
03 15.06
04 15.06
05 15.06
06 15.06
07 15.06
08 15.06
09 15.06
10 15.06
11 15.06
12 15.06
13 15.06
14 15.06
15 15.06
16 15.06
17 15.06
18 15.06
19 15.06
20 15.06
21 15.06
22 15.06
23 15.06
00 16.06
01 16.06
02 16.06
03 16.06
04 16.06
05 16.06
06 16.06
07 16.06
08 16.06
09 16.06
10 16.06
11 16.06
12 16.06
13 16.06
14 16.06
15 16.06
16 16.06
17 16.06
18 16.06
19 16.06
20 16.06
21 16.06
22 16.06
23 16.06
00 17.06
01 17.06
02 17.06
03 17.06
04 17.06
05 17.06
06 17.06
07 17.06
08 17.06
09 17.06
10 17.06
11 17.06
12 17.06
13 17.06
14 17.06
15 17.06
16 17.06
17 17.06
18 17.06
Ветер
(напр.,м/с)
Видим. Явления Облачность Т
(С)
Тd
(С)
f
(%)
Тe
(С)
Тes
(С)
Комфортность P
(гПа)
Po
(гПа)
Тmin
(С)
Tmax
(С)
R
(мм)
R24
(мм)
S
(см)
Ю 4-6 {8} 20 км 8/3 600 м
[Cb calv Cs]
+29.9 +17.2 46 +34 +34 очень душно 1003.1 981.5
ЮЗ 5-10 {10} 20 км 3/3 600 м
[Cb calv]
+29.3 +16.3 45 +32 +32 душно 1004.3 982.6
ЮЗ 6-9 {11} 20 км зарница 4/4 600 м
[Cb cap]
+28.3 +11.1 34 +29 +29 жарко 1004.9 983.1
ЮЗ 7-12 {12} 20 км ясно +27.8 +8.7 30 +28 +28 жарко 1005.3 983.5
ЮЗ 5-9 {11} 20 км ясно +25.9 +9.0 34 +26 +26 жарко 1005.9 983.9
ЮЗ 4-7 {9} 20 км ясно +24.7 +9.2 37 +25 +25 комфорт 1006.3 984.2 0
ЮЗ 4-6 {7} 20 км ясно +24.1 +9.2 39 +25 +25 комфорт 1006.5 984.4
ЮЗ 4-6 {6} 20 км ясно +23.4 +9.3 41 +25 +25 комфорт 1006.5 984.4
З 1-3 {6} 20 км ясно +21.3 +10.2 49 +23 +23 комфорт 1007.4 985.1
З 1-3 {4} 20 км 3/0
[Ac lent Ci fib]
+21.7 +10.5 49 +23 +24 комфорт 1007.4 985.1
Ю 1-2 {3} 20 км 4/0
[Ac lent Ci fib]
+23.3 +11.6 48 +26 +29 жарко 1007.5 985.3
З 3-4 {5} 20 км 3/0
[Ac lent Ci fib]
+25.7 +11.9 42 +27 +32 жарко 1007.4 985.4 +21.1 +32.7
Ю 3-5 {6} 20 км 4/0
[Ac trans Ci sp]
+27.0 +13.2 43 +29 +37 жарко 1007.7 985.8
ЮЗ 4-7 {7} 20 км 3/0
[Ci fib]
+28.0 +14.1 43 +30 +39 жарко 1007.7 985.8
ЮЗ 5-8 {9} 20 км 4/1 1000 м
[Cu hum Ci fib]
+29.5 +13.3 37 +31 +39 жарко 1007.7 986.0
ЮЗ 5-8 {10} 20 км 3/1 1000 м
[Cu hum Ci fib]
+30.5 +12.3 33 +31 +40 жарко 1007.3 985.6
Ю 5-9 {9} 20 км 3/1 1000 м
[Cu med, cong Ci fib]
+31.2 +11.8 30 +32 +40 жарко 1006.9 985.3
ЮЗ 6-10 {11} 20 км 6/3 1000 м
[Cu med, cong Cs]
+32.0 +12.0 29 +32 +37 жарко 1006.4 984.9
ЮЗ 6-10 {11} 20 км 9/3 1000 м
[Cu med, cong Cs]
+32.3 +11.7 28 +32 +36 жарко 1006.4 984.9
ЮЗ 6-10 {11} 20 км 9/4 600 м
[Cb calv Cs]
+31.9 +12.2 30 +32 +34 жарко 1006.5 985.0
З 8-14 {14} 20 км 9/5 600 м
[Cb calv Cs]
+30.7 +12.9 34 +32 +32 жарко 1007.1 985.4
ЮЗ 7-10 {11} 20 км 8/4 600 м
[Cb calv Ci sp]
+29.9 +13.1 36 +31 +32 жарко 1007.5 985.8
З 6-9 {10} 20 км 8/4 600 м
[Cb calv Ci sp]
+29.5 +13.5 37 +31 +31 жарко 1007.7 986.0
З 5-7 {9} 20 км 5/3 600 м
[Cb calv Ci sp]
+27.8 +13.6 42 +30 +30 жарко 1008.0 986.1 +25.8 +32.7
З 4-6 {7} 20 км 4/3 600 м
[Cb calv Ci fib]
+25.9 +14.5 49 +28 +28 жарко 1008.7 986.7
З 4-5 {6} 20 км 1/0
[Ac lent]
+24.7 +15.1 55 +28 +28 душно 1009.4 987.2
З 3-5 {5} 20 км ясно +23.3 +14.4 57 +27 +27 душно 1009.8 987.5
З 3-5 {5} 20 км 3/0
[Ci fib]
+21.8 +14.4 63 +25 +25 комфорт 1010.3 987.9
ЮЗ 3-4 {5} 20 км ясно +20.8 +14.2 66 +24 +24 комфорт 1011.3 988.9
ЮЗ 5-6 {6} 20 км 3/0
[Ci fib]
+20.9 +14.6 67 +24 +24 комфорт 1011.6 989.1
ЮЗ 3-4 {7} 20 км ясно +18.8 +14.8 78 +20 +20 1011.7 989.1
ЮЗ 4-5 {6} 20 км 3/0
[Ci fib]
+18.7 +14.8 78 +19 +19 1012.1 989.5
З 2-3 {5} 20 км 3/1 1000 м
[Cu hum Ci fib]
+17.9 +14.8 82 +18 +18 1012.5 989.8
ЮЗ 3-3 {4} 20 км 3/1 1000 м
[Cu hum Ci fib]
+17.8 +14.8 83 +18 +19 1012.7 989.9
Ю 2-4 {4} 20 км ясно +19.4 +15.0 76 +22 +25 комфорт 1012.7 990.0
ЮЗ 2-3 {4} 20 км 1/0
[Ac lent]
+21.2 +14.9 67 +24 +30 комфорт 1012.5 990.1 +17.7 +27.8
СЗ 1-3 {3} 20 км 1/0
[Ac lent]
+23.8 +14.7 57 +27 +38 жарко 1012.0 989.7
ЮЗ 2-4 {4} 20 км 4/0
[Ac lent Ci fib]
+25.5 +14.3 50 +28 +40 жарко 1012.2 990.0
ЮЗ 2-5 {6} 20 км 8/3 600 м
[Cb calv Ac trans Ci fib]
+27.4 +14.6 45 +30 +38 жарко 1012.1 990.1
ЮЗ 2-3 {6} 20 км 9/5 600 м
[Cb calv Ac lent Ci fib]
+26.8 +13.4 44 +29 +35 жарко 1011.8 989.8
Ю 2-4 {6} 20 км 9/6 600 м
[Cb calv As trans]
+27.0 +12.5 41 +29 +33 жарко 1011.3 989.3
ЮВ 2-7 {7} 20 км 8/4 600 м
[Cb calv Cs]
+29.2 +13.9 39 +31 +40 жарко 1010.7 988.9
ЮВ 2-3 {5} 20 км 9/5 600 м
[Cb calv Cs]
+28.7 +12.5 37 +30 +36 жарко 1010.4 988.5
Ю 3-5 {7} 20 км в посл. час ливневой дождь 9/5 600 м
[Cb cap Ac lent]
+27.7 +16.0 49 +31 +32 душно 1011.0 989.1
ЮЗ 3-5 {6} 20 км {ливн. дождь} 6/4 600 м
[Cb calv Ac lent Ci fib]
+29.0 +14.9 42 +31 +34 жарко 1010.5 988.7 0.0
ЮЗ 2-5 {7} 20 км 6/5 600 м
[Cb calv Ci fib]
+29.2 +15.1 42 +32 +33 душно 1010.8 988.9
Ю 3-5 {6} 20 км 5/3 600 м
[Cb calv Ci fib]
+28.2 +15.2 45 +31 +31 душно 1010.6 988.7
Ю 3-4 {4} 20 км {ливн. дождь} 4/3 600 м
[Cb calv Ac lent]
+27.1 +15.2 48 +30 +30 душно 1011.0 989.0 +21.2 +30.0
Ю 1-2 {4} 20 км 4/3 600 м
[Cb calv Ac lent]
+25.7 +15.1 52 +29 +29 душно 1011.2 989.1
З 2-3 {4} 20 км 6/4 600 м
[Cb calv Ac lent]
+24.3 +15.1 56 +27 +27 жарко 1012.0 989.8
З 3-3 {3} 20 км 6/0
[Ac lent Cs]
+22.9 +15.2 62 +27 +27 душно 1012.6 990.3
СЗ 2-3 {4} 20 км 5/0
[Cs]
+22.4 +15.3 64 +26 +26 жарко 1013.0 990.6
Ю 1-2 {5} 20 км зарница 5/4 600 м
[Cb cap Ci fib]
+21.2 +14.3 65 +24 +24 комфорт 1013.2 990.8
СВ 2-2 {2} 20 км 5/4 600 м
[Cb calv Ci fib]
+21.1 +14.2 65 +24 +24 комфорт 1013.2 990.7
З 2-3 {3} 20 км 8/3 600 м
[Cb calv Cs]
+20.0 +14.4 70 +23 +23 комфорт 1013.5 990.9
З 4-6 {6} 20 км 8/0
[Ac lent Cs]
+18.3 +15.7 85 +19 +19 1013.3 990.6
З 3-5 {7} 20 км 8/3 600 м
[Cb calv Ac lent Ci fib]
+17.9 +15.1 84 +18 +18 1013.7 991.0
З 4-7 {7} 20 км 8/4 600 м
[Cb calv Ac lent]
+18.0 +15.4 85 +18 +18 1013.8 991.0
СЗ 4-6 {7} 20 км 5/4 600 м
[Cb calv Ac lent]
+20.9 +15.3 70 +24 +25 комфорт 1013.8 991.2
С 3-5 {7} 20 км 3/0
[Ac lent]
+22.9 +15.3 62 +27 +31 душно 1013.9 991.6 +17.4 +27.1 0.0
З 5-7 {7} 20 км 3/0
[Ac lent]
+23.4 +15.9 63 +28 +32 душно 1014.3 992.0
З 4-7 {7} 20 км 5/1 1000 м
[Cu hum Ac trans]
+24.8 +16.0 58 +28 +35 жарко 1014.3 992.0
З 3-5 {7} 20 км 3/3 1000 м
[Cu hum]
+26.0 +15.3 52 +29 +39 душно 1014.0 991.8
З 3-6 {7} 20 км 4/4 1000 м
[Cu hum]
+26.3 +15.9 53 +30 +39 душно 1013.6 991.5
З 3-6 {9} 20 км 3/3 1000 м
[Cu hum]
+28.5 +15.3 45 +31 +42 душно 1012.8 990.8
З 3-6 {7} 20 км 1/1 1000 м
[Cu hum]
+29.1 +15.1 43 +32 +45 душно 1012.1 990.2
ЮЗ 2-7 {7} 20 км 3/1 1000 м
[Cu med, cong Ci fib]
+30.0 +14.9 40 +32 +44 жарко 1011.3 989.5
З 2-5 {7} 20 км 3/1 1000 м
[Cu hum Ci fib]
+30.7 +14.1 36 +32 +41 жарко 1010.4 988.7
СЗ 2-5 {6} 20 км 3/1 1000 м
[Cu hum Ci fib]
+30.9 +13.7 35 +32 +37 жарко 1009.3 987.6
ЮВ 2-5 {5} 20 км 3/0
[Ci fib]
+30.9 +14.2 36 +33 +35 душно 1007.8 986.1
СВ 3-4 {6} 20 км 9/5 600 м
[Cb calv Ac As]
+30.0 +13.8 37 +32 +32 жарко 1007.0 985.3
Ю 6-10 {10} 20 км гроза, ливневой дождь 9/5 600 м
[Cb cap Ac As]
+27.1 +16.1 51 +30 +30 душно 1007.2 985.3 +23.0 +31.6 0.0
СЗ 10-19 {21} 2400 м сильн. гроза с градом {ливн. дождь} 10/10 600 м
[Cb cap]
+16.3 +15.9 97 +14 +14 1010.6 987.8 29
З 3-5 {10} 20 км шквал {гроза, ливн. дождь} 9/5 600 м
[Cb cap Ac As]
+18.1 +16.9 93 +18 +18 1011.7 989.0 0.8
ЮЗ 1-3 {5} 20 км в посл. час гроза {ливн. дождь} 3/1 600 м
[Cb calv Ac trans]
+17.9 +16.9 94 +19 +19 1012.5 989.7 30
З 4-5 {5} 12 км 4/1 600 м
[Cb calv Ac trans]
+17.8 +17.3 97 +18 +18 1011.7 989.0
ЮЗ 2-3 {5} 10 км 4/1 600 м
[Cb calv Ac trans]
+17.5 +17.1 98 +18 +18 1012.1 989.3
ЮЗ 3-5 {5} 20 км {гроза, ливн. дождь} 4/1 600 м
[Cb calv Ac trans]
+17.3 +16.6 96 +17 +17 1011.8 989.1
ЮЗ 3-5 {5} 20 км 4/3 600 м
[Cb calv Ac trans]
+17.0 +16.2 95 +17 +17 1011.4 988.7
ЮЗ 4-5 {5} 20 км 8/4 600 м
[Cb calv Ac As]
+16.9 +15.9 94 +16 +16 1012.0 989.2
З 6-10 {11} 20 км слаб. ливневой дождь 9/5 600 м
[Cb cap Ac As]
+16.5 +15.0 91 +15 +15 1011.8 989.0 0.4
ЮЗ 4-6 {8} 20 км слаб. ливневой дождь 9/5 600 м
[Cb cap Ac As]
+16.2 +14.9 92 +15 +16 1011.9 989.1
ЮЗ 4-5 {6} 20 км в посл. час ливневой дождь 9/5 600 м
[Cb calv Ac As]
+16.3 +14.9 91 +16 +16 1012.0 989.1 0.0
ЮЗ 5-8 {8} 20 км {ливн. дождь} 9/6 600 м
[Cb cap Ac As]
+17.1 +15.1 88 +16 +17 1012.1 989.3 +15.3 +26.9 0.0 30.2 0
ЮЗ 6-10 {12} 20 км 8/4 600 м
[Cb calv Ac lent Cs]
+17.3 +14.3 83 +16 +18 1011.9 989.1
З 6-8 {10} 20 км 9/4 600 м
[Cb calv Cs]
+20.4 +13.9 66 +23 +25 комфорт 1011.4 988.9
ЮЗ 7-10 {10} 20 км 8/3 1000 м
[Cu med, cong Cs]
+20.6 +13.5 64 +23 +26 комфорт 1011.8 989.3
ЮЗ 5-9 {9} 20 км 8/5 600 м
[Cb calv Cs]
+23.0 +13.4 55 +26 +31 жарко 1010.8 988.5
З 5-9 {9} 20 км 8/8 600 м
[Cb calv]
+23.9 +13.5 52 +26 +28 жарко 1010.7 988.4
ЮЗ 6-10 {10} 20 км 8/8 600 м
[Cb calv]
+23.6 +13.2 52 +26 +27 жарко 1010.6 988.3 0
ЮЗ 8-12 {12} 20 км 5/5 600 м
[Cb calv]
+24.8 +12.9 48 +27 +28 жарко 1010.1 987.9
ЮЗ 8-13 {14} 20 км 5/4 600 м
[Cb calv Ci fib]
+24.5 +12.0 46 +26 +27 жарко 1010.3 988.1
З 8-13 {14} 20 км 4/4 600 м
[Cb calv]
+24.5 +10.9 42 +26 +26 жарко 1010.8 988.6
З 8-14 {14} 20 км 5/4 600 м
[Cb calv Ci fib]
+24.0 +10.4 42 +25 +25 комфорт 1011.1 988.9
З 6-9 {12} 20 км 5/4 600 м
[Cb calv Ac lent]
+23.5 +10.1 43 +25 +25 комфорт 1011.4 989.1
З 6-10 {10} 20 км 5/3 600 м
[Cb calv Ac lent Ci fib]
+22.1 +9.9 46 +24 +24 комфорт 1011.9 989.5 +17.0 +25.6 0
ЮЗ 4-7 {11} 20 км 5/0
[Ac trans]
+20.2 +11.0 55 +22 +22 комфорт 1012.7 990.1
З 5-8 {8} 20 км 3/0
[Ac lent]
+18.8 +11.1 61 +19 +19 1013.4 990.7
З 4-5 {8} 20 км ясно +17.5 +11.1 66 +17 +17 1013.4 990.6
З 3 20 км ясно +16.1 +11.4 74 +16 +16 1013.8 990.9
СЗ 2-3 {4} 20 км 4/0
[Ci fib]
+15.7 +11.1 74 +16 +16 1013.4 990.5
З 3-3 {4} 20 км ясно +15.1 +11.2 78 +14 +14 1013.4 990.4 0
ЮЗ 1-2 {3} 20 км ясно +15.1 +11.5 79 +16 +16 1013.4 990.4
ЮЗ 1 20 км ясно +14.2 +11.7 85 +15 +15 1013.3 990.3
ЮЗ 2-2 {3} 20 км 5/4 600 м
[Cb calv Ac lent]
+13.5 +11.8 89 +13 +13 1013.5 990.4
З 2-2 {2} 20 км 6/0
[Ac trans]
+14.0 +12.2 89 +13 +14 1013.5 990.4
З 1-2 {3} 20 км 3/0
[Ac lent]
+15.7 +12.2 80 +16 +19 1013.1 990.2
З 2-3 {3} 20 км 1/0
[Ac lent]
+17.3 +12.6 74 +18 +24 1013.4 990.6 +13.4 +22.1
З 1-2 {3} 20 км ясно +20.2 +12.4 61 +23 +36 комфорт 1013.2 990.6
ЮЗ 1-3 {3} 20 км ясно +21.8 +12.5 55 +24 +41 комфорт 1012.8 990.4
З 1-3 {4} 20 км 1/1 1000 м
[Cu hum]
+22.9 +10.6 46 +25 +44 комфорт 1012.6 990.2
З 2-5 {6} 20 км 1/1 1000 м
[Cu hum]
+25.0 +11.1 42 +26 +44 жарко 1012.3 990.1
ЮЗ 2-5 {5} 20 км 1/1 1000 м
[Cu hum]
+25.3 +10.9 40 +26 +44 жарко 1011.9 989.7
З 2-4 {7} 20 км 1/1 1000 м
[Cu hum]
+25.9 +8.7 34 +26 +42 жарко 1011.5 989.4
ЮЗ 2-4 {6} 20 км 1/1 1000 м
[Cu hum]
+26.8 +8.1 31 +27 +39 жарко 1010.9 988.9
ЮВ 2-4 {6} 20 км 1/1 1000 м
[Cu hum]
+27.7 +10.3 34 +28 +37 жарко 1010.5 988.5
З 1-3 {6} 20 км 1/1 1000 м
[Cu hum]
+27.8 +8.3 29 +28 +34 жарко 1010.2 988.2
Ю 1-4 {5} 20 км 1/0
[Ci fib]
+27.6 +10.7 35 +28 +31 жарко 1009.9 988.0
Ю 3-5 {6} 20 км 1/0
[Ci fib]
+26.5 +9.0 33 +27 +27 жарко 1010.1 988.1
ЮЗ 3-5 {5} 20 км 1/0
[Ci fib]
+25.2 +8.3 34 +26 +26 жарко 1010.2 988.1 +17.3 +28.0
З 1-2 {4} 20 км 1/0
[Ci fib]
+23.6 +8.0 37 +24 +24 комфорт 1010.7 988.5
ЮВ 2-3 {3} 20 км ясно +21.7 +9.4 45 +23 +23 комфорт 1011.2 988.8
Ю 1-2 {3} 20 км ясно +21.7 +8.2 42 +23 +23 комфорт 1011.3 988.9
Ю 1-1 {2} 20 км ясно +21.1 +9.1 46 +22 +22 комфорт 1011.3 988.9
Ю 1-2 {2} 20 км ясно +20.0 +9.4 50 +22 +22 комфорт 1011.3 988.7
ЮЗ 1-2 {2} 20 км ясно +19.8 +9.8 52 +22 +22 комфорт 1011.2 988.6
С 3-4 {4} 20 км ясно +16.4 +10.5 68 +16 +16 1011.4 988.6
С 3-4 {4} 20 км ясно +15.8 +10.0 68 +15 +15 1011.4 988.5
С 3-5 {5} 20 км ясно +15.6 +10.0 69 +15 +15 1011.7 988.8
С 3-5 {5} 20 км ясно +15.8 +11.5 76 +15 +16 1011.8 988.9
СВ 4-6 {6} 20 км ясно +17.7 +13.1 74 +17 +20 1012.0 989.3
СВ 4-6 {6} 20 км ясно +19.6 +13.7 69 +21 +26 комфорт 1011.9 989.3 +15.2 +25.2
СВ 2-3 {6} 20 км ясно +22.4 +14.7 62 +26 +37 жарко 1011.8 989.5
СЗ 1-2 {3} 20 км ясно +25.5 +12.8 45 +27 +44 жарко 1011.5 989.4
СЗ 2-4 {4} 20 км ясно +26.2 +11.9 41 +28 +45 жарко 1011.6 989.5
ЮЗ 2-6 {6} 20 км 1/1 1000 м
[Cu hum]
+26.3 +9.8 35 +27 +44 жарко 1011.3 989.2
ЮЗ 3-6 {7} 20 км 3/3 1000 м
[Cu hum]
+27.9 +11.6 36 +29 +40 жарко 1011.0 989.1
ЮЗ 3-6 {6} 20 км 4/3 600 м
[Cb calv Ac lent]
+28.5 +12.3 37 +30 +39 жарко 1010.6 988.7
ЮЗ 4-7 {11} 20 км 4/3 600 м
[Cb calv Ac lent]
+29.3 +11.4 33 +30 +36 жарко 1010.1 988.2
ЮЗ 4-7 {8} 20 км 4/3 600 м
[Cb calv Ac lent]
+29.3 +12.8 36 +30 +35 жарко 1009.7 987.9
ЮЗ 3-7 {11} 20 км 4/3 600 м
[Cb calv Ac lent]
+29.9 +12.4 34 +31 +34 жарко 1009.4 987.6
З 4-7 {8} 20 км 3/3 600 м
[Cb calv]
+29.4 +12.6 36 +31 +32 жарко 1009.4 987.6
З 3-5 {7} 20 км ясно +28.8 +13.4 39 +30 +31 жарко 1009.5 987.7
З 4-6 {6} 20 км ясно +27.6 +14.1 44 +30 +30 жарко 1009.9 988.0 +19.6 +30.2
З 3-4 {6} 20 км 1/0
[Ac lent]
+25.5 +14.5 51 +28 +28 жарко 1010.5 988.4
З 3-4 {4} 20 км 3/0
[Ac lent]
+24.1 +14.7 56 +27 +27 жарко 1011.3 989.0
З 2-3 {3} 20 км 4/0
[Ac lent Ci fib]
+23.4 +14.7 58 +27 +27 душно 1011.6 989.3
З 2-2 {3} 20 км 4/0
[Ac lent Ci fib]
+22.4 +14.9 63 +26 +26 жарко 1011.7 989.3
З 2-3 {4} 20 км 3/0
[Ci fib]
+21.1 +15.0 68 +24 +24 комфорт 1012.2 989.7
ЮЗ 3-4 {4} 20 км 6/0
[Cs]
+19.9 +15.5 76 +22 +22 комфорт 1012.7 990.1
З 3-4 {6} 20 км 6/0
[Cs]
+20.5 +15.2 72 +24 +24 комфорт 1013.0 990.5
СЗ 2-3 {5} 20 км 8/0
[Ac lent Cs]
+20.2 +15.3 73 +23 +23 комфорт 1012.9 990.3
З 2-3 {4} 20 км 8/0
[Ac lent Cs]
+19.5 +15.6 78 +22 +22 комфорт 1013.3 990.7
ЮЗ 2-2 {3} 20 км 6/0
[Ac lent Cc]
+20.0 +15.7 76 +23 +24 комфорт 1013.7 991.1
З 3-4 {4} 20 км 5/0
[Ac cuf Ci fib]
+22.0 +15.3 66 +26 +28 душно 1013.5 991.0
ЮЗ 3-5 {5} 20 км 4/0
[Ac cuf Ci fib]
+23.6 +15.2 59 +26 +31 жарко 1013.6 991.3 +19.3 +27.5
ЮЗ 3-5 {5} 20 км 3/0
[Ac trans]
+25.3 +16.5 58 +29 +36 душно 1013.7 991.5
ЮЗ 2-5 {5} 20 км 3/0
[Cc]
+27.3 +14.6 46 +30 +43 душно 1013.8 991.8
Ю 3-6 {6} 20 км 1/0
[Ci fib]
+28.3 +16.5 49 +32 +46 душно 1013.7 991.7
ЮЗ 2-5 {6} 20 км 1/1 1000 м
[Cu hum]
+30.2 +14.1 37 +32 +49 жарко 1013.4 991.6
З 3-7 {7} 20 км 3/3 1000 м
[Cu med, cong]
+31.5 +13.6 34 +33 +44 жарко 1013.3 991.6
З 2-6 {7} 20 км 4/4 1000 м
[Cu med, cong]
+31.7 +13.8 34 +33 +43 жарко 1013.0 991.3
З 3-10 {10} 20 км 5/5 1000 м
[Cu med, cong]
+32.7 +13.0 30 +33 +39 жарко 1012.7 991.0
З 3-6 {8} 20 км 6/6 600 м
[Cb calv]
+32.9 +12.1 28 +33 +36 жарко 1012.4 990.8
З 3-7 {8} 20 км 4/4 600 м
[Cb calv]
+32.6 +11.6 28 +33 +36 жарко 1012.4 990.8
З 3-7 {7} 20 км 4/3 1000 м
[Cu med, cong Ci fib]
+31.8 +12.6 31 +32 +34 жарко 1012.5 990.8
З 3-5 {8} 20 км 3/1 1000 м
[Cu med, cong Ci fib]
+31.0 +12.9 33 +32 +32 жарко 1012.9 991.1
З 3-5 {5} 20 км 3/1 600 м
[Cb calv Ci fib]
+29.3 +13.0 37 +31 +31 жарко 1013.4 991.5 +23.5 +33.1
Местоположение метеостанции Крайова (Румыния): широта 44.32 долгота 23.87 высота над уровнем моря 195 м.
В архиве по умолчанию представлена погода в Крайове за последнюю неделю. Архивные данные за месяц целиком и за предыдущие месяцы, начиная с января 2011 года, Вы можете получить, выбрав интересующий диапазон дат из раскрывающегося списка и нажав кнопку "Найти!".
*Определитесь, кто Вы:
Внимание! Время в таблицах - всемирное. Для получения местного времени необходимо прибавить поправку, которая равна 2 ч.
Некоторые строки с данными для отдельных станций могут быть выделены курсивом. Это означает, что фактические данные отсутствуют по различным причинам, а приведенные значения являются расчетными модельными данными для данного пункта наблюдений.
Смотрите также архив погоды в соседних городах и на ближайших метеорологических станциях:
Партнеры нашего сайта:      
Пояснения к столбцам:
  • Ветер - указаны скорость ветра в м/с - средняя за 10 мин, порывы в срок и между сроками (в фигурных скобках) и направление, откуда дует ветер: С - северный,
  • СВ - северо-восточный, В - восточный, ЮВ - юго-восточный, Ю - южный, ЮЗ - юго-западный, З - западный, СЗ - северо-западный.
  • Видимость - горизонтальная дальность видимости в метрах или километрах. При видимости от 1 до 10 км при отсутствии осадков обычно наблюдается дымка, при ухудшении видимости до 1 км и менее - туман. В сухую погоду видимость может ухудшаться дымом, пылью или мглою.
  • Явления - указаны атмосферные явления, наблюдавшиеся в срок или в последний час перед сроком; фигурными скобками обозначены явления, наблюдавшиеся между сроками (за 1-3 часа до срока); квадратными скобками обозначены град или гололедные отложения с указанием их диаметра в мм.
  • Облачность - указаны через наклонную черту общая и нижняя облачность в баллах и высота нижней границы облаков в метрах; квадратными скобками обозначены формы облаков: Ci - перистые, Cs - перисто-слоистые, Cc - перисто-кучевые, Ac - высококучевые, As - высокослоистые, Sc - слоисто-кучевые, Ns - слоисто-дождевые, Cu - кучевые, Cb - кучево-дождевые. Подробнее классификацию облаков см. в Атласе облаков (PDF).
  • T - Температура воздуха - температура, измеренная на высоте 2 м над землей.
  • Td - Температура точки росы - температура, при понижении до которой содержащийся в воздухе водяной пар достигнет насыщения.
  • f - Относительная влажность воздуха - влажноcть воздуха, измеренная на высоте 2 м над землей.
  • Te - Эффективная температура - температура, которую ощущает одетый по сезону человек в тени. Характеристика душности погоды. При расчете учитывается влияние влажности воздуха и скорости ветра на теплоощущения человека.
  • Tes - Эффективная температура на солнце - температура, которую ощущает человек, с поправкой на солнечный нагрев. Характеристика знойности погоды. Зависит от высоты солнца над горизонтом, облачности и скорости ветра. Ночью, в пасмурную погоду, а также при ветре 12 м/с и более поправка равна нулю.
  • P - Атмосферное давление - приведенное к уровню моря атмосферное давление.
  • Po - Атмосферное давление - измеренное на уровне метеостанции атмосферное давление.
  • Tmin - Минимальная температура - минимум температуры воздуха на высоте 2 м над землей.
  • Tmax - Максимальная температура - максимум температуры воздуха на высоте 2 м над землей.
  • R - Количество осадков - Количество выпавших осадков за период времени, мм. При наведении курсора мыши на число - период времени, за который выпало указанное количество осадков.
  • R24 - Количество осадков - Количество выпавших осадков за 24 часа, мм.
  • S - Снежный покров - Высота снежного покрова, см. При наведении курсора мыши на число - состояние снежного покрова и степень покрытия местности в баллах.